MSG-3

Last updated on Thu Feb 08 2018 00:19:15 GMT+0000 (Coordinated Universal Time)

1 38552U 12035B 18037.61765709 -.00000013 00000-0 00000-0 0 9999 2 38552 0.8703 22.0134 0001701 275.4753 62.4619 1.00276439 20616

Satellite not in orbit

MSG-3